,,Stat5,,Stat1,,Stat2,,Stat3,,Stat4,,Wind1,,Wind1,
time,status,PA1M_AVG,status,PR1M_SUM,status,RH1M_AVG,status,SR1M_AVG,status,TA1M_AVG,status,W1dAve1m,status,W1sAve1m,
2001-10-27, 00:00:00,VALID,917.479,VALID,0,VALID,97.6338,VALID,0.0169808,VALID,19.5052,VALID,116,VALID,0.355997,
2001-10-27, 00:01:00,VALID,917.473,VALID,0,VALID,97.63,VALID,0.0849042,VALID,19.5218,VALID,117,VALID,0.56799,
2001-10-27, 00:02:00,VALID,917.456,VALID,0,VALID,97.5461,VALID,0.0169808,VALID,19.5208,VALID,110,VALID,0.690487,
2001-10-27, 00:03:00,VALID,917.45,VALID,0,VALID,97.4621,VALID,0.0169808,VALID,19.5253,VALID,111,VALID,0.699119,
2001-10-27, 00:04:00,VALID,917.435,VALID,0,VALID,97.3362,VALID,-0.0339617,VALID,19.5158,VALID,107,VALID,0.666884,
2001-10-27, 00:05:00,VALID,917.418,VALID,0,VALID,97.2879,VALID,-0.0679233,VALID,19.5191,VALID,100,VALID,0.412054,
2001-10-27, 00:06:00,VALID,917.421,VALID,0,VALID,97.2727,VALID,-0.0339617,VALID,19.5288,VALID,95,VALID,0.557509,
2001-10-27, 00:07:00,VALID,917.405,VALID,0,VALID,97.2472,VALID,-0.0339617,VALID,19.5193,VALID,86,VALID,0.566189,
2001-10-27, 00:08:00,VALID,917.394,VALID,0,VALID,97.2549,VALID,-0.0339617,VALID,19.5099,VALID,74,VALID,0.484821,
2001-10-27, 00:09:00,VALID,917.379,VALID,0,VALID,97.2828,VALID,-0.0339617,VALID,19.4999,VALID,75,VALID,0.466146,
2001-10-27, 00:10:00,VALID,917.377,VALID,0,VALID,97.3464,VALID,-0.0509425,VALID,19.4773,VALID,75,VALID,0.453776,
2001-10-27, 00:11:00,VALID,917.365,VALID,0,VALID,97.41,VALID,-0.0509425,VALID,19.484,VALID,66,VALID,0.378217,
2001-10-27, 00:12:00,VALID,917.364,VALID,0,VALID,97.4443,VALID,-0.0169808,VALID,19.4676,VALID,47,VALID,0.277778,
2001-10-27, 00:13:00,VALID,917.345,VALID,0,VALID,97.5054,VALID,-0.0169808,VALID,19.4577,VALID,47,VALID,0.172991,
2001-10-27, 00:14:00,VALID,917.335,VALID,0,VALID,97.5333,VALID,-0.0169808,VALID,19.4614,VALID,47,VALID,0.159926,
2001-10-27, 00:15:00,VALID,917.318,VALID,0,VALID,97.6071,VALID,-0.0339617,VALID,19.4647,VALID,47,VALID,0.0859375,
2001-10-27, 00:16:00,VALID,917.324,VALID,0,VALID,97.6541,VALID,-0.0169808,VALID,19.4647,VALID,47,VALID,0,
2001-10-27, 00:17:00,VALID,917.303,VALID,0,VALID,97.6999,VALID,-0.0339617,VALID,19.4579,VALID,47,VALID,0,
2001-10-27, 00:18:00,VALID,917.289,VALID,0,VALID,97.7101,VALID,0,VALID,19.4383,VALID,47,VALID,0.0199653,
2001-10-27, 00:19:00,VALID,917.291,VALID,0,VALID,97.6808,VALID,0.0169808,VALID,19.4319,VALID,60,VALID,0.149306,
2001-10-27, 00:20:00,VALID,917.272,VALID,0,VALID,97.6605,VALID,0,VALID,19.4254,VALID,60,VALID,0.0975379,
2001-10-27, 00:21:00,VALID,917.253,VALID,0,VALID,97.6898,VALID,0,VALID,19.4095,VALID,60,VALID,0.00740132,
2001-10-27, 00:22:00,VALID,917.248,VALID,0,VALID,97.7406,VALID,0.0169808,VALID,19.4055,VALID,60,VALID,0.075,
2001-10-27, 00:23:00,VALID,917.223,VALID,0,VALID,97.7915,VALID,0.0169808,VALID,19.4127,VALID,60,VALID,0.177619,
2001-10-27, 00:24:00,VALID,917.206,VALID,0,VALID,97.8284,VALID,0,VALID,19.4157,VALID,60,VALID,0.379645,
2001-10-27, 00:25:00,VALID,917.196,VALID,0,VALID,97.8055,VALID,0.0169808,VALID,19.416,VALID,59,VALID,0.329814,
2001-10-27, 00:26:00,VALID,917.188,VALID,0,VALID,97.8296,VALID,0,VALID,19.3996,VALID,57,VALID,0.263184,
2001-10-27, 00:27:00,VALID,917.166,VALID,0,VALID,97.8118,VALID,0,VALID,19.3869,VALID,57,VALID,0.161675,
2001-10-27, 00:28:00,VALID,917.166,VALID,0,VALID,97.8156,VALID,0,VALID,19.374,VALID,57,VALID,0.00954861,
2001-10-27, 00:29:00,VALID,917.144,VALID,0,VALID,97.8614,VALID,0.0339617,VALID,19.3802,VALID,42,VALID,0.0255682,
2001-10-27, 00:30:00,VALID,917.129,VALID,0,VALID,97.8131,VALID,0.0169808,VALID,19.3742,VALID,29,VALID,0.570518,
2001-10-27, 00:31:00,VALID,917.098,VALID,0,VALID,97.8017,VALID,0,VALID,19.3481,VALID,29,VALID,0.696875,
2001-10-27, 00:32:00,VALID,917.079,VALID,0,VALID,97.8411,VALID,0,VALID,19.3317,VALID,26,VALID,0.648208,
2001-10-27, 00:33:00,VALID,917.076,VALID,0,VALID,97.9059,VALID,0,VALID,19.3124,VALID,13,VALID,0.505279,
2001-10-27, 00:34:00,VALID,917.069,VALID,0,VALID,97.9682,VALID,0.0169808,VALID,19.3126,VALID,12,VALID,0.302998,
2001-10-27, 00:35:00,VALID,917.049,VALID,0,VALID,98.0026,VALID,0,VALID,19.2997,VALID,11,VALID,0.291748,
2001-10-27, 00:36:00,VALID,917.048,VALID,0,VALID,98.056,VALID,0,VALID,19.3069,VALID,347,VALID,0.296224,
2001-10-27, 00:37:00,VALID,917.052,VALID,0,VALID,98.1017,VALID,-0.0169808,VALID,19.2967,VALID,346,VALID,0.297526,
2001-10-27, 00:38:00,VALID,917.043,VALID,0,VALID,98.1412,VALID,0.0169808,VALID,19.2997,VALID,346,VALID,0.230114,
2001-10-27, 00:39:00,VALID,917.025,VALID,0,VALID,98.2162,VALID,0,VALID,19.2994,VALID,351,VALID,0.0990954,
2001-10-27, 00:40:00,VALID,916.995,VALID,0,VALID,98.2747,VALID,0,VALID,19.3191,VALID,53,VALID,0.529911,
2001-10-27, 00:41:00,VALID,916.977,VALID,0,VALID,98.2543,VALID,0,VALID,19.3091,VALID,54,VALID,0.324678,
2001-10-27, 00:42:00,VALID,916.973,VALID,0,VALID,98.2187,VALID,0,VALID,19.2997,VALID,54,VALID,0.0656672,
2001-10-27, 00:43:00,VALID,916.957,VALID,0,VALID,98.2505,VALID,0.0169808,VALID,19.293,VALID,54,VALID,0,
2001-10-27, 00:44:00,VALID,916.932,VALID,0,VALID,98.2874,VALID,-0.0169808,VALID,19.3029,VALID,54,VALID,0.0757576,
2001-10-27, 00:45:00,VALID,916.913,VALID,0,VALID,98.3739,VALID,0,VALID,19.3191,VALID,54,VALID,0.192708,
2001-10-27, 00:46:00,VALID,916.891,VALID,0,VALID,98.3726,VALID,0.0169808,VALID,19.3188,VALID,54,VALID,0.306858,
2001-10-27, 00:47:00,VALID,916.872,VALID,0,VALID,98.3383,VALID,0,VALID,19.3186,VALID,54,VALID,0.20715,
2001-10-27, 00:48:00,VALID,916.859,VALID,0,VALID,98.337,VALID,0,VALID,19.3059,VALID,54,VALID,0.17866,
2001-10-27, 00:49:00,VALID,916.835,VALID,0,VALID,98.2505,VALID,0,VALID,19.2868,VALID,54,VALID,0.0348214,
2001-10-27, 00:50:00,VALID,916.828,VALID,0,VALID,98.2734,VALID,0,VALID,19.2708,VALID,54,VALID,0,
2001-10-27, 00:51:00,VALID,916.802,VALID,0,VALID,98.3548,VALID,-0.0169808,VALID,19.2641,VALID,54,VALID,0.0831926,
2001-10-27, 00:52:00,VALID,916.785,VALID,0,VALID,98.4031,VALID,-0.0169808,VALID,19.2838,VALID,54,VALID,0.182644,
2001-10-27, 00:53:00,VALID,916.763,VALID,0,VALID,98.4095,VALID,-0.0169808,VALID,19.29,VALID,54,VALID,0.177734,
2001-10-27, 00:54:00,VALID,916.75,VALID,0,VALID,98.4018,VALID,0,VALID,19.2733,VALID,54,VALID,0.0761719,
2001-10-27, 00:55:00,VALID,916.732,VALID,0,VALID,98.3904,VALID,0.0169808,VALID,19.2701,VALID,54,VALID,0,
2001-10-27, 00:56:00,VALID,916.713,VALID,0,VALID,98.3357,VALID,0.0339617,VALID,19.2775,VALID,54,VALID,0,
2001-10-27, 00:57:00,VALID,916.7,VALID,0,VALID,98.2899,VALID,0,VALID,19.2316,VALID,54,VALID,0,
2001-10-27, 00:58:00,VALID,916.675,VALID,0,VALID,98.3167,VALID,0.0169808,VALID,19.2254,VALID,54,VALID,0,
2001-10-27, 00:59:00,VALID,916.665,VALID,0,VALID,98.3319,VALID,0,VALID,19.2259,VALID,54,VALID,0,
2001-10-27, 01:00:00,VALID,916.65,VALID,0,VALID,98.3459,VALID,0.0169808,VALID,19.1986,VALID,54,VALID,0,
2001-10-27, 01:01:00,VALID,916.638,VALID,0,VALID,98.3828,VALID,0.0169808,VALID,19.2025,VALID,54,VALID,0,
2001-10-27, 01:02:00,VALID,916.621,VALID,0,VALID,98.4196,VALID,0.0679233,VALID,19.2217,VALID,54,VALID,0,
2001-10-27, 01:03:00,VALID,916.598,VALID,0,VALID,98.4298,VALID,-0.0679233,VALID,19.2192,VALID,54,VALID,0,
2001-10-27, 01:04:00,VALID,916.57,VALID,0,VALID,98.379,VALID,-0.101885,VALID,19.2266,VALID,54,VALID,0,
2001-10-27, 01:05:00,VALID,916.535,VALID,0,VALID,98.3434,VALID,-0.101885,VALID,19.2144,VALID,54,VALID,0,
2001-10-27, 01:06:00,VALID,916.511,VALID,0,VALID,98.3472,VALID,-0.101885,VALID,19.198,VALID,64,VALID,0.315995,
2001-10-27, 01:07:00,VALID,916.499,VALID,0,VALID,98.3739,VALID,-0.101885,VALID,19.1948,VALID,86,VALID,0.44933,
2001-10-27, 01:08:00,VALID,916.468,VALID,0,VALID,98.3866,VALID,-0.118866,VALID,19.1844,VALID,102,VALID,0.684743,
2001-10-27, 01:09:00,VALID,916.447,VALID,0,VALID,98.4247,VALID,-0.0849042,VALID,19.2008,VALID,106,VALID,0.853252,
2001-10-27, 01:10:00,VALID,916.432,VALID,0,VALID,98.3955,VALID,-0.101885,VALID,19.2142,VALID,107,VALID,0.769426,
2001-10-27, 01:11:00,VALID,916.422,VALID,0,VALID,98.3929,VALID,-0.101885,VALID,19.2139,VALID,108,VALID,0.599121,
2001-10-27, 01:12:00,VALID,916.421,VALID,0,VALID,98.4006,VALID,-0.118866,VALID,19.2204,VALID,109,VALID,0.298611,
2001-10-27, 01:13:00,VALID,916.404,VALID,0,VALID,98.3446,VALID,-0.101885,VALID,19.2271,VALID,107,VALID,0.712674,
2001-10-27, 01:14:00,VALID,916.375,VALID,0,VALID,98.3637,VALID,-0.0849042,VALID,19.2072,VALID,110,VALID,0.850852,
2001-10-27, 01:15:00,VALID,916.356,VALID,0,VALID,98.3929,VALID,-0.101885,VALID,19.1945,VALID,114,VALID,0.70847,
2001-10-27, 01:16:00,VALID,916.332,VALID,0,VALID,98.3586,VALID,-0.101885,VALID,19.1913,VALID,113,VALID,0.584152,
2001-10-27, 01:17:00,VALID,916.311,VALID,0,VALID,98.384,VALID,-0.0849042,VALID,19.1784,VALID,109,VALID,0.625689,
2001-10-27, 01:18:00,VALID,916.301,VALID,0,VALID,98.3904,VALID,-0.0509425,VALID,19.1744,VALID,106,VALID,0.802998,
2001-10-27, 01:19:00,VALID,916.271,VALID,0,VALID,98.3853,VALID,0,VALID,19.1576,VALID,93,VALID,0.709248,
2001-10-27, 01:20:00,VALID,916.241,VALID,0,VALID,98.3904,VALID,0,VALID,19.1675,VALID,86,VALID,0.457275,
2001-10-27, 01:21:00,VALID,916.226,VALID,0,VALID,98.3726,VALID,0,VALID,19.1449,VALID,85,VALID,0.396267,
2001-10-27, 01:22:00,VALID,916.208,VALID,0,VALID,98.3434,VALID,-0.0169808,VALID,19.1424,VALID,85,VALID,0.546658,
2001-10-27, 01:23:00,VALID,916.187,VALID,0,VALID,98.3434,VALID,-0.0169808,VALID,19.1089,VALID,88,VALID,0.659091,
2001-10-27, 01:24:00,VALID,916.171,VALID,0,VALID,98.3243,VALID,-0.0169808,VALID,19.1059,VALID,91,VALID,0.558183,
2001-10-27, 01:25:00,VALID,916.154,VALID,0,VALID,98.3548,VALID,0,VALID,19.0833,VALID,82,VALID,0.375893,
2001-10-27, 01:26:00,VALID,916.135,VALID,0,VALID,98.3662,VALID,0.0169808,VALID,19.0572,VALID,99,VALID,0.532399,
2001-10-27, 01:27:00,VALID,916.121,VALID,0,VALID,98.379,VALID,-0.0169808,VALID,19.0574,VALID,100,VALID,0.419975,
2001-10-27, 01:28:00,VALID,916.111,VALID,0,VALID,98.4425,VALID,-0.0169808,VALID,19.0547,VALID,102,VALID,0.373733,
2001-10-27, 01:29:00,VALID,916.092,VALID,0,VALID,98.5023,VALID,0,VALID,19.0607,VALID,93,VALID,0.572021,
2001-10-27, 01:30:00,VALID,916.07,VALID,0,VALID,98.5099,VALID,-0.0169808,VALID,19.0577,VALID,81,VALID,0.419488,
2001-10-27, 01:31:00,VALID,916.032,VALID,0,VALID,98.4896,VALID,-0.0509425,VALID,19.0482,VALID,80,VALID,0.457031,
2001-10-27, 01:32:00,VALID,915.997,VALID,0,VALID,98.5125,VALID,0.0339617,VALID,19.0381,VALID,77,VALID,0.637784,
2001-10-27, 01:33:00,VALID,915.985,VALID,0,VALID,98.5099,VALID,-0.0169808,VALID,19.0452,VALID,71,VALID,0.648849,
2001-10-27, 01:34:00,VALID,915.963,VALID,0,VALID,98.5366,VALID,0,VALID,19.0284,VALID,70,VALID,0.520089,
2001-10-27, 01:35:00,VALID,915.946,VALID,0,VALID,98.5608,VALID,0.0169808,VALID,19.0284,VALID,69,VALID,0.27068,
2001-10-27, 01:36:00,VALID,915.932,VALID,0,VALID,98.5519,VALID,-0.0339617,VALID,19.0219,VALID,68,VALID,0.295819,
2001-10-27, 01:37:00,VALID,915.908,VALID,0,VALID,98.5684,VALID,0,VALID,19.0085,VALID,68,VALID,0.344172,
2001-10-27, 01:38:00,VALID,915.882,VALID,0,VALID,98.5684,VALID,0,VALID,19.0157,VALID,68,VALID,0.485596,
2001-10-27, 01:39:00,VALID,915.861,VALID,0,VALID,98.5468,VALID,0,VALID,19.0028,VALID,66,VALID,0.607639,
2001-10-27, 01:40:00,VALID,915.841,VALID,0,VALID,98.5595,VALID,-0.0339617,VALID,18.9928,VALID,68,VALID,0.432075,
2001-10-27, 01:41:00,VALID,915.813,VALID,0,VALID,98.5341,VALID,0.0169808,VALID,18.9931,VALID,72,VALID,0.200994,
2001-10-27, 01:42:00,VALID,915.809,VALID,0,VALID,98.5481,VALID,0,VALID,18.9931,VALID,72,VALID,0,
2001-10-27, 01:43:00,VALID,915.787,VALID,0,VALID,98.6104,VALID,0,VALID,19.0125,VALID,72,VALID,0,
2001-10-27, 01:44:00,VALID,915.773,VALID,0,VALID,98.5977,VALID,0,VALID,19.0125,VALID,72,VALID,0,
2001-10-27, 01:45:00,VALID,915.763,VALID,0,VALID,98.5773,VALID,0,VALID,19.0159,VALID,72,VALID,0,
2001-10-27, 01:46:00,VALID,915.74,VALID,0,VALID,98.5583,VALID,0,VALID,19.0028,VALID,72,VALID,0.105785,
2001-10-27, 01:47:00,VALID,915.725,VALID,0,VALID,98.5519,VALID,0.0169808,VALID,19.006,VALID,72,VALID,0.223389,
2001-10-27, 01:48:00,VALID,915.711,VALID,0,VALID,98.5087,VALID,-0.0169808,VALID,18.9998,VALID,72,VALID,0.325521,
2001-10-27, 01:49:00,VALID,915.695,VALID,0,VALID,98.487,VALID,0.0169808,VALID,18.9968,VALID,72,VALID,0.324219,
2001-10-27, 01:50:00,VALID,915.698,VALID,0,VALID,98.4832,VALID,0,VALID,18.9831,VALID,72,VALID,0.478456,
2001-10-27, 01:51:00,VALID,915.699,VALID,0,VALID,98.4731,VALID,0,VALID,18.9995,VALID,72,VALID,0.522615,
2001-10-27, 01:52:00,VALID,915.695,VALID,0,VALID,98.4451,VALID,0,VALID,18.9993,VALID,74,VALID,0.611161,
2001-10-27, 01:53:00,VALID,915.693,VALID,0,VALID,98.3484,VALID,0,VALID,18.9968,VALID,83,VALID,0.540671,
2001-10-27, 01:54:00,VALID,915.689,VALID,0,VALID,98.2645,VALID,0,VALID,18.9869,VALID,86,VALID,0.48902,
2001-10-27, 01:55:00,VALID,915.682,VALID,0,VALID,98.2187,VALID,-0.0169808,VALID,18.9702,VALID,95,VALID,0.696791,
2001-10-27, 01:56:00,VALID,915.67,VALID,0,VALID,98.1602,VALID,0,VALID,18.9675,VALID,93,VALID,0.690186,
2001-10-27, 01:57:00,VALID,915.675,VALID,0,VALID,98.1463,VALID,-0.0169808,VALID,18.964,VALID,89,VALID,0.737196,
2001-10-27, 01:58:00,VALID,915.655,VALID,0,VALID,98.1335,VALID,0,VALID,18.9548,VALID,82,VALID,0.794271,
2001-10-27, 01:59:00,VALID,915.645,VALID,0,VALID,98.1145,VALID,-0.0339617,VALID,18.9479,VALID,85,VALID,0.65483,
2001-10-27, 02:00:00,VALID,915.635,VALID,0,VALID,98.1704,VALID,-0.0169808,VALID,18.9516,VALID,96,VALID,0.751028,
2001-10-27, 02:01:00,VALID,915.626,VALID,0,VALID,98.1246,VALID,0,VALID,18.9479,VALID,81,VALID,0.429911,
2001-10-27, 02:02:00,VALID,915.626,VALID,0,VALID,98.1361,VALID,-0.0169808,VALID,18.9516,VALID,81,VALID,0.507813,
2001-10-27, 02:03:00,VALID,915.631,VALID,0,VALID,98.0534,VALID,-0.0169808,VALID,18.9386,VALID,60,VALID,0.355152,
2001-10-27, 02:04:00,VALID,915.627,VALID,0,VALID,98.0547,VALID,0,VALID,18.9156,VALID,67,VALID,0.411106,
2001-10-27, 02:05:00,VALID,915.631,VALID,0,VALID,98.1221,VALID,-0.0339617,VALID,18.9026,VALID,88,VALID,0.481445,
2001-10-27, 02:06:00,VALID,915.628,VALID,0,VALID,98.2086,VALID,0,VALID,18.9324,VALID,98,VALID,0.442925,
2001-10-27, 02:07:00,VALID,915.626,VALID,0,VALID,98.2836,VALID,-0.0679233,VALID,18.9253,VALID,113,VALID,0.654297,
2001-10-27, 02:08:00,VALID,915.634,VALID,0,VALID,98.2912,VALID,0.0169808,VALID,18.9317,VALID,118,VALID,0.741714,
2001-10-27, 02:09:00,VALID,915.612,VALID,0,VALID,98.2912,VALID,-0.0169808,VALID,18.9386,VALID,107,VALID,0.80366,
2001-10-27, 02:10:00,VALID,915.604,VALID,0,VALID,98.3332,VALID,0,VALID,18.9352,VALID,105,VALID,0.910714,
2001-10-27, 02:11:00,VALID,915.6,VALID,0,VALID,98.323,VALID,0.0169808,VALID,18.9317,VALID,106,VALID,0.622243,
2001-10-27, 02:12:00,VALID,915.592,VALID,0,VALID,98.3192,VALID,0,VALID,18.9384,VALID,106,VALID,0.505068,
2001-10-27, 02:13:00,VALID,915.581,VALID,0,VALID,98.337,VALID,0,VALID,18.9352,VALID,89,VALID,0.4356,
2001-10-27, 02:14:00,VALID,915.574,VALID,0,VALID,98.3027,VALID,-0.0169808,VALID,18.9416,VALID,68,VALID,0.539551,
2001-10-27, 02:15:00,VALID,915.569,VALID,0,VALID,98.2747,VALID,0,VALID,18.9156,VALID,68,VALID,0.36046,
2001-10-27, 02:16:00,VALID,915.552,VALID,0,VALID,98.2899,VALID,0,VALID,18.9294,VALID,71,VALID,0.21875,
2001-10-27, 02:17:00,VALID,915.553,VALID,0,VALID,98.2454,VALID,0,VALID,18.9163,VALID,73,VALID,0.252841,
2001-10-27, 02:18:00,VALID,915.55,VALID,0,VALID,98.2213,VALID,-0.0169808,VALID,18.887,VALID,73,VALID,0.0651727,
2001-10-27, 02:19:00,VALID,915.549,VALID,0,VALID,98.2149,VALID,-0.0169808,VALID,18.8743,VALID,40,VALID,0.31317,
2001-10-27, 02:20:00,VALID,915.555,VALID,0,VALID,98.2009,VALID,-0.0169808,VALID,18.8577,VALID,22,VALID,0.455653,
2001-10-27, 02:21:00,VALID,915.56,VALID,0,VALID,98.2302,VALID,0,VALID,18.8452,VALID,53,VALID,0.547931,
2001-10-27, 02:22:00,VALID,915.551,VALID,0,VALID,98.2632,VALID,-0.0169808,VALID,18.848,VALID,52,VALID,0.365498,
2001-10-27, 02:23:00,VALID,915.555,VALID,0,VALID,98.234,VALID,-0.0169808,VALID,18.8551,VALID,51,VALID,0.203369,
2001-10-27, 02:24:00,VALID,915.576,VALID,0,VALID,98.1908,VALID,0,VALID,18.8187,VALID,51,VALID,0.00651042,
2001-10-27, 02:25:00,VALID,915.57,VALID,0,VALID,98.2238,VALID,0,VALID,18.8226,VALID,51,VALID,0,
2001-10-27, 02:26:00,VALID,915.571,VALID,0,VALID,98.2378,VALID,-0.0169808,VALID,18.8261,VALID,78,VALID,0.188684,
2001-10-27, 02:27:00,VALID,915.558,VALID,0,VALID,98.2404,VALID,-0.0169808,VALID,18.8328,VALID,108,VALID,0.0135691,
2001-10-27, 02:28:00,VALID,915.544,VALID,0,VALID,98.2238,VALID,-0.0169808,VALID,18.8261,VALID,108,VALID,0.000892857,
2001-10-27, 02:29:00,VALID,915.537,VALID,0,VALID,98.2505,VALID,-0.0339617,VALID,18.8293,VALID,108,VALID,0.170956,
2001-10-27, 02:30:00,VALID,915.522,VALID,0,VALID,98.281,VALID,-0.0169808,VALID,18.8321,VALID,109,VALID,0.14147,
2001-10-27, 02:31:00,VALID,915.521,VALID,0,VALID,98.2442,VALID,-0.0339617,VALID,18.8358,VALID,109,VALID,0,
2001-10-27, 02:32:00,VALID,915.525,VALID,0,VALID,98.2645,VALID,-0.0169808,VALID,18.8353,VALID,109,VALID,0.048584,
2001-10-27, 02:33:00,VALID,915.513,VALID,0,VALID,98.2976,VALID,-0.0339617,VALID,18.8452,VALID,58,VALID,0.60395,
2001-10-27, 02:34:00,VALID,915.493,VALID,0,VALID,98.2594,VALID,0,VALID,18.8589,VALID,21,VALID,0.645182,
2001-10-27, 02:35:00,VALID,915.495,VALID,0,VALID,98.1946,VALID,-0.0509425,VALID,18.8323,VALID,33,VALID,0.434422,
2001-10-27, 02:36:00,VALID,915.487,VALID,0,VALID,98.1183,VALID,0,VALID,18.8134,VALID,37,VALID,0.46361,
2001-10-27, 02:37:00,VALID,915.493,VALID,0,VALID,98.0776,VALID,-0.0509425,VALID,18.7968,VALID,12,VALID,0.212946,
2001-10-27, 02:38:00,VALID,915.47,VALID,0,VALID,98.0445,VALID,-0.0509425,VALID,18.7876,VALID,4,VALID,0.00574449,
2001-10-27, 02:39:00,VALID,915.458,VALID,0,VALID,98.0369,VALID,-0.0679233,VALID,18.7779,VALID,39,VALID,0.239443,
2001-10-27, 02:40:00,VALID,915.433,VALID,0,VALID,97.9682,VALID,-0.0339617,VALID,18.7776,VALID,61,VALID,0.620988,
2001-10-27, 02:41:00,VALID,915.422,VALID,0,VALID,97.9555,VALID,-0.0169808,VALID,18.7744,VALID,67,VALID,0.532715,
2001-10-27, 02:42:00,VALID,915.42,VALID,0,VALID,97.9466,VALID,-0.0509425,VALID,18.7647,VALID,76,VALID,0.470703,
2001-10-27, 02:43:00,VALID,915.408,VALID,0,VALID,98.0165,VALID,0,VALID,18.758,VALID,76,VALID,0.1977,
2001-10-27, 02:44:00,VALID,915.397,VALID,0,VALID,98.042,VALID,-0.0169808,VALID,18.7677,VALID,93,VALID,0.237453,
2001-10-27, 02:45:00,VALID,915.378,VALID,0,VALID,98.0318,VALID,-0.0339617,VALID,18.7871,VALID,103,VALID,0.0974507,
2001-10-27, 02:46:00,VALID,915.374,VALID,0,VALID,98.0776,VALID,0,VALID,18.8005,VALID,100,VALID,0.0582589,
2001-10-27, 02:47:00,VALID,915.364,VALID,0,VALID,98.0382,VALID,0,VALID,18.8032,VALID,55,VALID,0.460018,
2001-10-27, 02:48:00,VALID,915.354,VALID,0,VALID,97.9542,VALID,-0.0339617,VALID,18.7906,VALID,45,VALID,0.669552,
2001-10-27, 02:49:00,VALID,915.329,VALID,0,VALID,97.9415,VALID,-0.0169808,VALID,18.7809,VALID,50,VALID,0.901182,
2001-10-27, 02:50:00,VALID,915.33,VALID,0,VALID,97.9962,VALID,-0.0509425,VALID,18.7873,VALID,24,VALID,0.269043,
2001-10-27, 02:51:00,VALID,915.346,VALID,0,VALID,97.9949,VALID,-0.0169808,VALID,18.7811,VALID,249,VALID,0.559462,
2001-10-27, 02:52:00,VALID,915.342,VALID,0,VALID,98.0661,VALID,-0.0339617,VALID,18.8132,VALID,220,VALID,0.535373,
2001-10-27, 02:53:00,VALID,915.355,VALID,0,VALID,98.145,VALID,-0.0169808,VALID,18.8291,VALID,174,VALID,0.242661,
2001-10-27, 02:54:00,VALID,915.354,VALID,0,VALID,98.0941,VALID,-0.0169808,VALID,18.8261,VALID,147,VALID,0.298109,
2001-10-27, 02:55:00,VALID,915.36,VALID,0,VALID,97.986,VALID,-0.0509425,VALID,18.8132,VALID,114,VALID,0.405134,
2001-10-27, 02:56:00,VALID,915.352,VALID,0,VALID,97.8385,VALID,-0.0509425,VALID,18.8095,VALID,88,VALID,0.732767,
2001-10-27, 02:57:00,VALID,915.334,VALID,0,VALID,97.7254,VALID,-0.0169808,VALID,18.8229,VALID,81,VALID,0.682221,
2001-10-27, 02:58:00,VALID,915.332,VALID,0,VALID,97.5906,VALID,-0.0169808,VALID,18.8196,VALID,99,VALID,0.62141,
2001-10-27, 02:59:00,VALID,915.334,VALID,0,VALID,97.5639,VALID,0.0169808,VALID,18.8129,VALID,100,VALID,0.44873,
2001-10-27, 03:00:00,VALID,915.34,VALID,0,VALID,97.5779,VALID,-0.0169808,VALID,18.8196,VALID,110,VALID,0.375217,
2001-10-27, 03:01:00,VALID,915.341,VALID,0,VALID,97.6338,VALID,-0.0509425,VALID,18.8231,VALID,109,VALID,0.257595,
2001-10-27, 03:02:00,VALID,915.338,VALID,0,VALID,97.7241,VALID,-0.0339617,VALID,18.833,VALID,150,VALID,0.383759,
2001-10-27, 03:03:00,VALID,915.336,VALID,0,VALID,97.7788,VALID,0.0509425,VALID,18.845,VALID,148,VALID,0.510691,
2001-10-27, 03:04:00,VALID,915.331,VALID,0,VALID,97.822,VALID,0.0849042,VALID,18.8309,VALID,161,VALID,0.511607,
2001-10-27, 03:05:00,VALID,915.332,VALID,0,VALID,97.9466,VALID,0.0509425,VALID,18.8443,VALID,164,VALID,0.685662,
2001-10-27, 03:06:00,VALID,915.332,VALID,0,VALID,98.0229,VALID,0.0679233,VALID,18.8694,VALID,149,VALID,0.403083,
2001-10-27, 03:07:00,VALID,915.326,VALID,0,VALID,98.1272,VALID,0.0849042,VALID,18.8892,VALID,141,VALID,0.467483,
2001-10-27, 03:08:00,VALID,915.325,VALID,0,VALID,98.1793,VALID,0.0849042,VALID,18.9086,VALID,146,VALID,0.47168,
2001-10-27, 03:09:00,VALID,915.316,VALID,0,VALID,98.1806,VALID,0.0849042,VALID,18.9186,VALID,130,VALID,0.146701,
2001-10-27, 03:10:00,VALID,915.309,VALID,0,VALID,98.1717,VALID,0.0849042,VALID,18.9024,VALID,111,VALID,0.399957,
2001-10-27, 03:11:00,VALID,915.309,VALID,0,VALID,98.1908,VALID,0.0849042,VALID,18.8892,VALID,111,VALID,0.321733,
2001-10-27, 03:12:00,VALID,915.296,VALID,0,VALID,98.1615,VALID,0.0849042,VALID,18.8629,VALID,74,VALID,0.276316,
2001-10-27, 03:13:00,VALID,915.295,VALID,0,VALID,98.1488,VALID,0.101885,VALID,18.8341,VALID,69,VALID,0.369866,
2001-10-27, 03:14:00,VALID,915.304,VALID,0,VALID,98.1323,VALID,0.101885,VALID,18.8117,VALID,69,VALID,0.272978,
2001-10-27, 03:15:00,VALID,915.307,VALID,0,VALID,98.2111,VALID,0.101885,VALID,18.7991,VALID,85,VALID,0.28315,
2001-10-27, 03:16:00,VALID,915.31,VALID,0,VALID,98.2823,VALID,0.0849042,VALID,18.7921,VALID,94,VALID,0.43201,
2001-10-27, 03:17:01,VALID,915.304,VALID,0,VALID,98.3573,VALID,0.0849042,VALID,18.8152,VALID,127,VALID,0.223633,
2001-10-27, 03:18:01,VALID,915.318,VALID,0,VALID,98.4235,VALID,0.0849042,VALID,18.8152,VALID,131,VALID,0.238932,
2001-10-27, 03:19:00,VALID,915.308,VALID,0,VALID,98.4298,VALID,0.0509425,VALID,18.8115,VALID,133,VALID,0.499783,
2001-10-27, 03:20:00,VALID,915.31,VALID,0,VALID,98.4362,VALID,0.0169808,VALID,18.8046,VALID,136,VALID,0.432528,
2001-10-27, 03:21:00,VALID,915.305,VALID,0,VALID,98.4057,VALID,0.0509425,VALID,18.809,VALID,118,VALID,0.269737,
2001-10-27, 03:22:00,VALID,915.3,VALID,0,VALID,98.4336,VALID,0.0169808,VALID,18.8055,VALID,76,VALID,0.000446429,
2001-10-27, 03:23:00,VALID,915.291,VALID,0,VALID,98.3675,VALID,0.0339617,VALID,18.7921,VALID,71,VALID,0.317325,
2001-10-27, 03:24:00,VALID,915.296,VALID,0,VALID,98.3306,VALID,0,VALID,18.7767,VALID,108,VALID,0.667863,
2001-10-27, 03:25:00,VALID,915.274,VALID,0,VALID,98.2925,VALID,0,VALID,18.7665,VALID,127,VALID,0.514569,
2001-10-27, 03:26:00,VALID,915.276,VALID,0,VALID,98.3802,VALID,0,VALID,18.7728,VALID,105,VALID,0.620117,
2001-10-27, 03:27:01,VALID,915.271,VALID,0,VALID,98.365,VALID,0,VALID,18.7861,VALID,85,VALID,0.427517,
2001-10-27, 03:28:00,VALID,915.257,VALID,0,VALID,98.3891,VALID,0.0169808,VALID,18.7668,VALID,93,VALID,0.988715,
2001-10-27, 03:29:00,VALID,915.257,VALID,0,VALID,98.4794,VALID,0,VALID,18.7864,VALID,93,VALID,1.14749,
2001-10-27, 03:30:00,VALID,915.253,VALID,0,VALID,98.529,VALID,0,VALID,18.7991,VALID,94,VALID,0.973273,
2001-10-27, 03:31:00,VALID,915.25,VALID,0,VALID,98.5341,VALID,0,VALID,18.7926,VALID,99,VALID,0.964509,
2001-10-27, 03:32:00,VALID,915.251,VALID,0,VALID,98.5761,VALID,0,VALID,18.7894,VALID,119,VALID,0.752068,
2001-10-27, 03:33:00,VALID,915.252,VALID,0,VALID,98.6218,VALID,0.0339617,VALID,18.7829,VALID,114,VALID,0.765625,
2001-10-27, 03:34:00,VALID,915.246,VALID,0,VALID,98.6524,VALID,0,VALID,18.7765,VALID,116,VALID,0.73712,
2001-10-27, 03:35:00,VALID,915.243,VALID,0,VALID,98.6689,VALID,0.0169808,VALID,18.7829,VALID,118,VALID,0.944824,